User: anonymous   Login
Location: Caltech
(34.1382°N, 118.1253°W)
Time: 03:46:47
(UTC-07:00)
Language:

Cosmos-2242 - Orbit

View from above orbital plane
View from above orbital plane
View from above satellite
View from above satellite

Ground track
Ground track

The orbit data is extracted from the following two-line orbital elements,

1 22626U 93024A   17087.75691760 +.00000343 +00000-0 +34890-4 0  9998
2 22626 082.5197 117.6502 0019888 032.2488 327.9941 14.87627668294190
Epoch (UTC): 28 March 2017 18:09:57
Eccentricity: 0.0019888
inclination: 82.5197°
perigee height: 591 km
apogee height: 619 km
right ascension of ascending node: 117.6502°
argument of perigee: 32.2488°
revolutions per day: 14.87627668
mean anomaly at epoch: 327.9941°
orbit number at epoch: 29419

The dashed part of the orbit path shows where the satellite is in the earth's shadow,  

DLR